Madison, SD

7:19 PM CST on December 07, 2019 (GMT -0600)
Madison Municipal

Weather History for KMDS - September, 2019

Change the Weather History Date:

Monday, September 16, 2019

  Actual Average Record
Temperature  
Mean Temperature 72 °F -  
Max Temperature 80 °F 70 °F 86 °F (2018)
Min Temperature 64 °F 47 °F 39 °F (2014)
Cooling Degree Days 7    
Growing Degree Days 22 (Base 50)    
Moisture  
Dew Point 71 °F    
Average Humidity 97    
Maximum Humidity 100    
Minimum Humidity 78    
Precipitation  
Precipitation 0.00 in - - ()
Sea Level Pressure  
Sea Level Pressure 29.93 in    
Wind  
Wind Speed 11 mph ()    
Max Wind Speed 20 mph    
Max Gust Speed 30 mph    
Visibility 10.0 miles    
Events      
Averages and records for this station are not official NWS values.
T = Trace of Precipitation, MM = Missing Value Source: Averaged Metar Reports

Daily Weather History Graph

Daily Weather History Graph

Search for Another Location

Airport or City:

Astronomy

Sep. 16, 2019 Rise Set
Actual Time 7:08 AM CDT 7:37 PM CDT
Civil Twilight 6:39 AM CDT 8:06 PM CDT
Nautical Twilight 6:05 AM CDT 8:40 PM CDT
Astronomical Twilight 5:29 AM CDT 9:15 PM CDT
Moon 9:08 PM CDT (9/16) 9:19 AM CDT (9/16)
Length of Visible Light 13h 26m
Length of Day
12h 28m
Waning Gibbous, 94% of the Moon is Illuminated
Sep 16
Waning Gibbous
Sep 21
Last Quarter
Sep 28
New
Oct 5
First Quarter
Oct 13
Full

Hourly Weather History & Observations

Time (CDT) Temp. Heat Index Dew Point Humidity Pressure Visibility Wind Dir Wind Speed Gust Speed Precip Events Conditions
12:15 AM 66.2 °F - 66.2 °F 100% 29.97 in 10.0 mi SSE 9.2 mph - N/A   Clear
12:20 AM 66.2 °F - 66.2 °F 100% 29.97 in 10.0 mi SSE 9.2 mph - N/A   Clear
12:35 AM 66.2 °F - 66.2 °F 100% 29.97 in 10.0 mi SSE 9.2 mph - N/A   Clear
12:55 AM 66.2 °F - 66.2 °F 100% 29.97 in 10.0 mi South 9.2 mph - N/A   Clear
1:00 AM 66.2 °F - 66.2 °F 100% 29.97 in 10.0 mi South 10.4 mph - N/A   Clear
1:15 AM 64.4 °F - 64.4 °F 100% 29.98 in 10.0 mi South 9.2 mph - N/A   Clear
1:20 AM 64.4 °F - 64.4 °F 100% 29.98 in 10.0 mi South 11.5 mph - N/A   Clear
1:35 AM 66.2 °F - 66.2 °F 100% 29.97 in 10.0 mi South 10.4 mph - N/A   Clear
2:20 AM 64.4 °F - 64.4 °F 100% 29.98 in 10.0 mi SSE 10.4 mph - N/A   Clear
2:35 AM 64.4 °F - 64.4 °F 100% 29.98 in 10.0 mi South 10.4 mph - N/A   Clear
2:55 AM 64.4 °F - 64.4 °F 100% 29.98 in 10.0 mi SSE 11.5 mph - N/A   Clear
3:00 AM 64.4 °F - 64.4 °F 100% 29.98 in 10.0 mi SSE 12.7 mph - N/A   Clear
3:15 AM 66.2 °F - 66.2 °F 100% 29.97 in 10.0 mi South 12.7 mph - N/A   Clear
3:20 AM 66.2 °F - 66.2 °F 100% 29.97 in 10.0 mi South 13.8 mph - N/A   Clear
3:35 AM 66.2 °F - 66.2 °F 100% 29.97 in 10.0 mi South 12.7 mph - N/A   Clear
3:40 AM 66.2 °F - 66.2 °F 100% 29.97 in 10.0 mi South 12.7 mph - N/A   Clear
3:55 AM 66.2 °F - 66.2 °F 100% 29.97 in 10.0 mi SSE 12.7 mph 17.3 mph N/A   Clear
4:15 AM 66.2 °F - 66.2 °F 100% 29.97 in 10.0 mi SSE 10.4 mph 17.3 mph N/A   Clear
4:20 AM 66.2 °F - 66.2 °F 100% 29.96 in 10.0 mi SSE 11.5 mph - N/A   Clear
4:35 AM 66.2 °F - 66.2 °F 100% 29.96 in 10.0 mi South 10.4 mph - N/A   Clear
4:40 AM 66.2 °F - 66.2 °F 100% 29.96 in 10.0 mi SSE 10.4 mph - N/A   Clear
5:15 AM 64.4 °F - 64.4 °F 100% 29.95 in 10.0 mi SSE 13.8 mph 18.4 mph N/A   Clear
5:35 AM 64.4 °F - 64.4 °F 100% 29.95 in 10.0 mi SSE 10.4 mph 16.1 mph N/A   Clear
5:40 AM 64.4 °F - 64.4 °F 100% 29.95 in 10.0 mi SSE 10.4 mph 16.1 mph N/A   Clear
5:55 AM 64.4 °F - 64.4 °F 100% 29.95 in 10.0 mi SSE 10.4 mph - N/A   Clear
6:15 AM 64.4 °F - 64.4 °F 100% 29.95 in 10.0 mi SSE 9.2 mph - N/A   Clear
6:35 AM 64.4 °F - 64.4 °F 100% 29.96 in 10.0 mi SSE 9.2 mph - N/A   Clear
6:40 AM 64.4 °F - 64.4 °F 100% 29.96 in 10.0 mi SSE 8.1 mph - N/A   Clear
6:55 AM 64.4 °F - 64.4 °F 100% 29.96 in 10.0 mi SSE 8.1 mph - N/A   Clear
7:15 AM 64.4 °F - 64.4 °F 100% 29.96 in 10.0 mi SSE 8.1 mph - N/A   Clear
7:35 AM 64.4 °F - 64.4 °F 100% 29.96 in 10.0 mi South 9.2 mph - N/A   Clear
7:55 AM 66.2 °F - 66.2 °F 100% 29.96 in 10.0 mi SSE 9.2 mph - N/A   Clear
8:00 AM 66.2 °F - 66.2 °F 100% 29.96 in 10.0 mi South 9.2 mph - N/A   Clear
8:15 AM 66.2 °F - 66.2 °F 100% 29.96 in 10.0 mi South 10.4 mph - N/A   Clear
8:20 AM 66.2 °F - 66.2 °F 100% 29.96 in 10.0 mi South 9.2 mph - N/A   Clear
8:35 AM 68.0 °F - 68.0 °F 100% 29.96 in 10.0 mi South 12.7 mph 16.1 mph N/A   Clear
8:40 AM 68.0 °F - 68.0 °F 100% 29.96 in 10.0 mi South 10.4 mph 16.1 mph N/A   Clear
8:55 AM 68.0 °F - 68.0 °F 100% 29.96 in 10.0 mi South 12.7 mph 16.1 mph N/A   Clear
9:15 AM 68.0 °F - 68.0 °F 100% 29.96 in 10.0 mi South 13.8 mph - N/A   Clear
9:35 AM 68.0 °F - 68.0 °F 100% 29.96 in 10.0 mi South 11.5 mph - N/A   Clear
9:55 AM 69.8 °F - 69.8 °F 100% 29.95 in 10.0 mi South 13.8 mph - N/A   Clear
10:00 AM 69.8 °F - 69.8 °F 100% 29.95 in 10.0 mi South 13.8 mph - N/A   Clear
10:15 AM 71.6 °F - 71.6 °F 100% 29.95 in 10.0 mi SSE 13.8 mph 19.6 mph N/A   Clear
10:35 AM 71.6 °F - 71.6 °F 100% 29.95 in 10.0 mi South 15.0 mph - N/A   Clear
10:40 AM 73.4 °F - 73.4 °F 100% 29.95 in 10.0 mi South 15.0 mph - N/A   Clear
10:55 AM 73.4 °F - 73.4 °F 100% 29.95 in 10.0 mi South 11.5 mph - N/A   Clear
11:00 AM 73.4 °F - 73.4 °F 100% 29.95 in 10.0 mi South 11.5 mph - N/A   Clear
11:15 AM 73.4 °F - 73.4 °F 100% 29.94 in 10.0 mi South 10.4 mph - N/A   Clear
11:35 AM 75.2 °F - 75.2 °F 100% 29.94 in 10.0 mi South 13.8 mph 17.3 mph N/A   Clear
11:55 AM 75.2 °F - 73.4 °F 94% 29.94 in 10.0 mi South 12.7 mph 18.4 mph N/A   Clear
12:00 PM 75.2 °F - 75.2 °F 100% 29.94 in 10.0 mi South 13.8 mph 18.4 mph N/A   Clear
12:15 PM 75.2 °F - 73.4 °F 94% 29.94 in 10.0 mi South 13.8 mph - N/A   Clear
12:35 PM 77.0 °F - 73.4 °F 89% 29.94 in 10.0 mi SSE 15.0 mph 19.6 mph N/A   Clear
12:55 PM 77.0 °F - 71.6 °F 83% 29.94 in 10.0 mi South 15.0 mph 18.4 mph N/A   Clear
1:15 PM 78.8 °F - 71.6 °F 78% 29.93 in 10.0 mi South 15.0 mph 20.7 mph N/A   Clear
1:35 PM 78.8 °F - 71.6 °F 78% 29.93 in 10.0 mi South 15.0 mph 18.4 mph N/A   Clear
1:55 PM 77.0 °F - 69.8 °F 78% 29.92 in 10.0 mi South 15.0 mph 21.9 mph N/A   Clear
2:00 PM 77.0 °F - 69.8 °F 78% 29.92 in 10.0 mi SSE 15.0 mph 21.9 mph N/A   Clear
2:15 PM 77.0 °F - 71.6 °F 83% 29.92 in 10.0 mi South 10.4 mph - N/A   Clear
2:20 PM 77.0 °F - 71.6 °F 83% 29.92 in 10.0 mi South 13.8 mph 17.3 mph N/A   Clear
2:35 PM 78.8 °F - 73.4 °F 83% 29.92 in 10.0 mi SSE 11.5 mph 16.1 mph N/A   Clear
2:40 PM 78.8 °F - 71.6 °F 78% 29.92 in 10.0 mi SSE 15.0 mph 21.9 mph N/A   Clear
2:55 PM 78.8 °F - 73.4 °F 83% 29.92 in 10.0 mi South 15.0 mph 21.9 mph N/A   Clear
3:00 PM 78.8 °F - 71.6 °F 78% 29.92 in 10.0 mi South 16.1 mph 21.9 mph N/A   Clear
3:20 PM 77.0 °F - 73.4 °F 89% 29.91 in 10.0 mi SSE 11.5 mph 17.3 mph N/A   Clear
3:35 PM 77.0 °F - 75.2 °F 94% 29.92 in 10.0 mi SSE 9.2 mph - N/A   Clear
3:55 PM 80.6 °F 86.2 °F 75.2 °F 84% 29.91 in 10.0 mi South 13.8 mph 19.6 mph N/A   Clear
4:15 PM 78.8 °F - 75.2 °F 89% 29.91 in 10.0 mi SSE 11.5 mph 18.4 mph N/A   Clear
4:20 PM 77.0 °F - 75.2 °F 94% 29.91 in 10.0 mi SSE 12.7 mph 17.3 mph N/A   Clear
4:35 PM 77.0 °F - 75.2 °F 94% 29.91 in 10.0 mi SSE 10.4 mph - N/A   Clear
4:55 PM 77.0 °F - 77.0 °F 100% 29.90 in 10.0 mi SSE 10.4 mph - N/A   Clear
5:00 PM 77.0 °F - 77.0 °F 100% 29.90 in 10.0 mi SSE 11.5 mph - N/A   Clear
5:15 PM 77.0 °F - 75.2 °F 94% 29.90 in 10.0 mi South 12.7 mph - N/A   Clear
5:20 PM 77.0 °F - 75.2 °F 94% 29.91 in 10.0 mi SSE 12.7 mph 17.3 mph N/A   Clear
5:35 PM 77.0 °F - 75.2 °F 94% 29.90 in 10.0 mi SSE 9.2 mph 17.3 mph N/A   Clear
5:55 PM 77.0 °F - 77.0 °F 100% 29.90 in 10.0 mi SSE 12.7 mph - N/A   Clear
6:15 PM 77.0 °F - 77.0 °F 100% 29.90 in 10.0 mi SSE 12.7 mph 17.3 mph N/A   Clear
6:20 PM 77.0 °F - 77.0 °F 100% 29.90 in 10.0 mi SSE 12.7 mph 18.4 mph N/A   Clear
6:35 PM 77.0 °F - 77.0 °F 100% 29.90 in 10.0 mi SSE 10.4 mph 20.7 mph N/A   Clear
6:55 PM 75.2 °F - 75.2 °F 100% 29.90 in 10.0 mi SSE 12.7 mph 20.7 mph N/A   Clear
7:15 PM 75.2 °F - 75.2 °F 100% 29.90 in 10.0 mi SSE 10.4 mph - N/A   Clear
7:20 PM 75.2 °F - 75.2 °F 100% 29.90 in 10.0 mi SSE 11.5 mph - N/A   Clear
7:35 PM 75.2 °F - 75.2 °F 100% 29.90 in 10.0 mi SSE 11.5 mph 18.4 mph N/A   Clear
7:55 PM 73.4 °F - 73.4 °F 100% 29.90 in 10.0 mi SSE 10.4 mph - N/A   Clear
8:15 PM 73.4 °F - 73.4 °F 100% 29.90 in 10.0 mi SSE 11.5 mph - N/A   Clear
8:20 PM 73.4 °F - 73.4 °F 100% 29.90 in 10.0 mi SSE 10.4 mph - N/A   Clear
8:35 PM 73.4 °F - 73.4 °F 100% 29.90 in 10.0 mi SSE 10.4 mph - N/A   Clear
9:00 PM 75.2 °F - 75.2 °F 100% 29.90 in 10.0 mi SSE 12.7 mph 19.6 mph N/A   Partly Cloudy
9:15 PM 75.2 °F - 75.2 °F 100% 29.90 in 10.0 mi SSE 13.8 mph 19.6 mph N/A   Partly Cloudy
9:35 PM 75.2 °F - 75.2 °F 100% 29.90 in 10.0 mi SSE 12.7 mph - N/A   Clear
9:40 PM 75.2 °F - 75.2 °F 100% 29.90 in 10.0 mi SSE 11.5 mph 17.3 mph N/A   Clear
9:55 PM 75.2 °F - 75.2 °F 100% 29.90 in 10.0 mi SSE 12.7 mph - N/A   Clear
10:00 PM 75.2 °F - 75.2 °F 100% 29.90 in 10.0 mi SSE 13.8 mph 18.4 mph N/A   Clear
10:15 PM 75.2 °F - 75.2 °F 100% 29.90 in 10.0 mi SSE 15.0 mph 19.6 mph N/A   Clear
10:20 PM 75.2 °F - 75.2 °F 100% 29.90 in 10.0 mi SSE 13.8 mph 20.7 mph N/A   Clear
10:35 PM 75.2 °F - 75.2 °F 100% 29.90 in 10.0 mi South 17.3 mph 21.9 mph N/A   Clear
10:55 PM 75.2 °F - 75.2 °F 100% 29.90 in 10.0 mi SSE 17.3 mph 25.3 mph N/A   Partly Cloudy
11:00 PM 75.2 °F - 75.2 °F 100% 29.90 in 10.0 mi SSE 16.1 mph 25.3 mph N/A   Scattered Clouds
11:15 PM 75.2 °F - 75.2 °F 100% 29.89 in 10.0 mi SSE 18.4 mph 29.9 mph N/A   Scattered Clouds
11:35 PM 75.2 °F - 75.2 °F 100% 29.89 in 10.0 mi South 17.3 mph 25.3 mph N/A   Scattered Clouds
11:40 PM 75.2 °F - 75.2 °F 100% 29.89 in 10.0 mi South 18.4 mph 24.2 mph N/A   Scattered Clouds
11:55 PM 75.2 °F - 75.2 °F 100% 29.89 in 10.0 mi South 19.6 mph 27.6 mph N/A   Mostly Cloudy